Find Starlink 4185

NORAD ID: 53139 Int'l Des: 2022-083 Owner: SPXS Country: US Constellation: starlink operational
LEOCIRCULAR

Live Position

Loading 3D Globe...

About Starlink 4185

Description loading...

Upcoming Passes

Passes for default location (London). Set your location on the main map for personalized predictions.

Altitude History

Loading altitude history...

Two-Line Element Set

1 53139U 22083H 26121.91696338 .00000657 00000-0 59352-4 0 9999
2 53139 53.2188 295.1738 0001086 87.7749 272.3367 15.08839384209259
Epoch: May 1, 2026 • Age: 19 hours

Current Status

Altitude 543.6 km
Velocity 7.60 km/s
Sub-Earth Point 44.22°N, 142.99°W
Launch Date Jul 17, 2022
Age 3.7 years
Type internet

Technical Details

Classification Payload
Mass 297.00 kg
Dry Mass 275.00 kg
Total Mass 297.00 kg
Length 0.20 m
Diameter 2.80 m
Span 9.00 m
Shape Box + pan
Manufacturer SPXS
Bus Type Starlink
Phase Status In Orbit
Owner/State SPXS/US

Most Searched